[[{"header":{"parameterUnit":"m.s-1","parameterCategory":2,"la1":30.2991,"la2":30.254,"lo1":-89.0895,"lo2":-89.0444,"dy":0.0017,"dx":0.0017,"nx":28,"ny":28,"refTime":"2023-08-04T21:00:00:Z","depth":"0","parameterNumber":2,"parameterNumberName":"U-component_of_CURRENTS"},"data":[0,0,0,0,0,0,0,0,0,0,0,0,0,0,0,0,0,0,0,0,0,0,0,0,0,0,0,0,0,0,0,0,0,0,0,0,0,0,0,0,0,0,0,0,0,0,0,0,0,0,0,0,0,0,0,0,0,0,0.2136,0.2136,0,0.2165,0.2166,0.2166,0.215,0.2149,0.2148,0.2147,0.2168,0.217,0.2171,0,0,0,0,0,0,0,0,0,0,0,0,0,0.2027,0.2029,0.2136,0.2136,0.2136,0.2165,0.2166,0.2166,0.215,0.2149,0.2148,0.2146,0.2168,0.2169,0.2171,0,0,0,0,0,0,0,0,0,0,0,0,0,0.2069,0.203,0.2136,0.213,0.2129,0.2165,0.2166,0.2166,0.215,0.2149,0.2147,0.2146,0.2167,0.2169,0.2171,0.2217,0,0,0.2178,0.2179,0,0,0,0,0,0,0,0,0.2067,0.2074,0.2131,0.213,0.213,0.215,0.2135,0.2182,0.2151,0.2145,0.2147,0.2145,0.2161,0.2164,0.2176,0.2218,0.2219,0.2179,0.218,0.2181,0.2182,0,0,0,0,0,0,0,0.2064,0.2072,0.215,0.2131,0.213,0.2112,0.2117,0.2144,0.2163,0.2145,0.2144,0.2143,0.2161,0.2174,0.2176,0.2219,0.2179,0.2181,0.2182,0.2183,0.2287,0.2288,0,0,0,0,0,0,0.206,0.207,0.2149,0.2151,0.2091,0.2115,0.2121,0.2147,0.2163,0.2163,0.2145,0.2143,0.2171,0.2174,0.2177,0.225,0.2181,0.2183,0.2184,0.2285,0.2287,0.2288,0,0,0,0,0,0,0.2058,0.2068,0.2148,0.2107,0.2115,0.2119,0.2148,0.2149,0.2159,0.2162,0.2162,0.2154,0.217,0.2174,0.2204,0.225,0.2184,0.2186,0.2284,0.2286,0.2288,0.2384,0,0,0,0,0,0,0.2056,0.2068,0.2089,0.2108,0.2117,0.2177,0.215,0.215,0.216,0.2158,0.2171,0.2171,0.2169,0.22,0.2206,0.2252,0.2188,0.2282,0.2285,0.2287,0.2379,0.2389,0.2398,0,0,0,0,0,0.2052,0.2093,0.209,0.2099,0.2146,0.2178,0.2182,0.2179,0.2162,0.218,0.2183,0.217,0.222,0.2204,0.221,0.2257,0.2281,0.2284,0.2287,0.2375,0.2387,0.2398,0,0,0,0,0,0,0.2059,0.2095,0.2093,0.2143,0.2158,0.2174,0.2194,0.2186,0.2204,0.2202,0.2194,0.2196,0.224,0.2231,0.2213,0.2291,0.2247,0.2252,0.2312,0.2324,0.2333,0.2325,0.219,0,0,0,0,0,0.207,0.2109,0.2129,0.2168,0.2181,0.2187,0.2199,0.2198,0.2212,0.2218,0.2219,0.2229,0.2261,0.2275,0.2293,0.2342,0.2362,0.2372,0.2382,0.239,0.2387,0.2468,0.2485,0.2299,0.2299,0.2299,0,0,0.2077,0.2105,0.2124,0.2171,0.2186,0.2219,0.2192,0.2222,0.2245,0.222,0.2253,0.2263,0.2279,0.2332,0.2351,0.233,0.2458,0.2394,0.2401,0.2393,0.2473,0.2491,0.2508,0.2301,0.23,0.23,0,0,0.2121,0.2146,0.2192,0.2212,0.2241,0.2248,0.2256,0.2274,0.228,0.2313,0.2308,0.2342,0.237,0.2402,0.2421,0.2492,0.2504,0.2495,0.2545,0.2625,0.2641,0.2655,0.273,0.275,0.2502,0.2502,0.2503,0,0.213,0.2189,0.2207,0.2253,0.2268,0.2263,0.2302,0.2322,0.2339,0.2356,0.233,0.2399,0.2409,0.2496,0.2514,0.2518,0.2557,0.2506,0.264,0.2654,0.2667,0.274,0.2761,0.2507,0.2507,0.2506,0.2506,0,0.2204,0.2243,0.2273,0.2329,0.2351,0.2384,0.2404,0.2428,0.2424,0.2433,0.2494,0.2513,0.2552,0.257,0.2564,0.2669,0.2666,0.2645,0.2616,0.2693,0.2763,0.2784,0.2515,0.2513,0.2511,0.251,0,0,0.2238,0.2311,0.2314,0.2342,0.2388,0.2412,0.2467,0.2511,0.2548,0.2564,0.2619,0.2672,0.2669,0.2689,0.2699,0.2759,0.2895,0.2741,0.2743,0.2823,0.308,0.3119,0.3144,0.2904,0.2908,0.2911,0.3101,0,0.2284,0.2362,0.2389,0.2449,0.249,0.2506,0.2554,0.2593,0.2617,0.2667,0.2702,0.2752,0.2722,0.275,0.2812,0.2863,0.2949,0.2845,0.2984,0.2988,0.3022,0.3169,0.3105,0.3273,0.3121,0.3124,0.3127,0,0.2346,0.2385,0.2454,0.2508,0.2527,0.2562,0.2627,0.2671,0.2746,0.2767,0.2825,0.2839,0.2931,0.2888,0.3041,0.2977,0.304,0.3078,0.3087,0.3098,0.3066,0.3166,0.3316,0.3068,0.3158,0.3156,0.3153,0,0.236,0.2426,0.2474,0.2495,0.2566,0.2599,0.263,0.27,0.2738,0.2833,0.2865,0.2965,0.3011,0.3106,0.3168,0.3123,0.3334,0.3286,0.3391,0.3393,0.3352,0.3346,0.3282,0.3425,0.3425,0.3424,0.3424,0,0.2411,0.2449,0.248,0.2516,0.2559,0.2608,0.2671,0.2719,0.2796,0.2857,0.291,0.2982,0.3065,0.3174,0.3234,0.3389,0.3402,0.344,0.3465,0.3385,0.338,0.3168,0.3057,0.3431,0.343,0.3428,0.3427,0,0.2451,0.2474,0.2525,0.2573,0.2579,0.2613,0.2664,0.2717,0.2785,0.2872,0.2903,0.3019,0.3178,0.3271,0.3439,0.348,0.3515,0.3666,0.3565,0.3576,0.3434,0.3333,0.3333,0.3257,0.3832,0.3834,0.3836,0,0.2488,0.2518,0.2544,0.255,0.2574,0.2612,0.2644,0.2707,0.2761,0.2899,0.2949,0.3113,0.3232,0.3494,0.3628,0.38,0.3607,0.3822,0.3728,0.3456,0.3361,0.3228,0.3152,0.3718,0.3719,0.372,0.372,0,0.2537,0.2537,0.2569,0.257,0.2588,0.2614,0.2661,0.2693,0.2793,0.2869,0.3006,0.3112,0.3377,0.3522,0.3741,0.3845,0.3608,0.3844,0.3588,0.3309,0.3136,0.3063,0.3543,0.3727,0.3726,0.3726,0.3725,0.3725,0.2548,0.2555,0.2565,0.2574,0.2589,0.2611,0.2619,0.2688,0.2764,0.2865,0.301,0.312,0.3312,0.3627,0.3723,0.3716,0.3693,0.3587,0.3508,0.3412,0.327,0.3775,0.3962,0.3962,0.3963,0.3963,0.3964,0,0.2538,0.2537,0.2555,0.2551,0.2556,0.2573,0.2622,0.2627,0.2692,0.2815,0.2929,0.3032,0.3192,0.3326,0.3437,0.3331,0.3255,0.3189,0.2915,0.2876,0.3347,0.3263,0.3273,0.3274,0.3274,0.3274,0.3274,0.3275,0.2515,0.2515,0.2525,0.2508,0.2505,0.2484,0.2497,0.2521,0.2577,0.2601,0.2615,0.2685,0.276,0.2846,0.2798,0.2811,0.2532,0.2512,0.2418,0.2617,0.2642,0.2667,0.2555,0.2417,0.2416,0.1885,0.188,0.1876]},{"header":{"parameterUnit":"m.s-1","parameterCategory":2,"la1":30.2991,"la2":30.254,"lo1":-89.0895,"lo2":-89.0444,"dy":0.0017,"dx":0.0017,"nx":28,"ny":28,"refTime":"2023-08-04T21:00:00:Z","depth":"0","parameterNumber":3,"parameterNumberName":"V-component_of_CURRENTS"},"data":[0,0,0,0,0,0,0,0,0,0,0,0,0,0,0,0,0,0,0,0,0,0,0,0,0,0,0,0,0,0,0,0,0,0,0,0,0,0,0,0,0,0,0,0,0,0,0,0,0,0,0,0,0,0,0,0,0,0,-0.0571,-0.0571,0,-0.0633,-0.0635,-0.0636,-0.0729,-0.0731,-0.0732,-0.0733,-0.0838,-0.084,-0.0842,0,0,0,0,0,0,0,0,0,0,0,0,0,-0.0553,-0.0553,-0.0571,-0.0571,-0.0571,-0.0633,-0.0635,-0.0636,-0.0729,-0.0731,-0.0732,-0.0733,-0.0838,-0.084,-0.0842,0,0,0,0,0,0,0,0,0,0,0,0,0,-0.0587,-0.0553,-0.0571,-0.0622,-0.0627,-0.0633,-0.0635,-0.0636,-0.0729,-0.0731,-0.0732,-0.0734,-0.0837,-0.0839,-0.0842,-0.0822,0,0,-0.085,-0.0851,0,0,0,0,0,0,0,0,-0.0585,-0.0589,-0.0614,-0.0618,-0.0624,-0.0671,-0.0667,-0.0699,-0.0728,-0.0695,-0.0733,-0.0735,-0.0782,-0.0789,-0.0803,-0.0827,-0.0832,-0.085,-0.0852,-0.0853,-0.0853,0,0,0,0,0,0,0,-0.0583,-0.0587,-0.0601,-0.0614,-0.062,-0.0648,-0.0656,-0.0674,-0.0732,-0.0698,-0.0704,-0.0702,-0.0786,-0.0801,-0.0806,-0.0833,-0.085,-0.0852,-0.0854,-0.0855,-0.086,-0.0858,0,0,0,0,0,0,-0.0562,-0.0584,-0.0599,-0.0602,-0.0603,-0.0647,-0.0655,-0.0658,-0.0732,-0.0743,-0.0701,-0.0706,-0.0795,-0.0803,-0.081,-0.0794,-0.0853,-0.0855,-0.0856,-0.0861,-0.0859,-0.0858,0,0,0,0,0,0,-0.0561,-0.0563,-0.0596,-0.059,-0.0596,-0.0644,-0.0648,-0.0658,-0.0672,-0.0732,-0.0745,-0.0703,-0.0797,-0.0807,-0.0826,-0.0798,-0.0856,-0.0858,-0.0863,-0.086,-0.0859,-0.0758,0,0,0,0,0,0,-0.0561,-0.0562,-0.0551,-0.0589,-0.0595,-0.0582,-0.0646,-0.0658,-0.0666,-0.0674,-0.0738,-0.075,-0.0799,-0.0822,-0.0828,-0.0803,-0.086,-0.0864,-0.0862,-0.0859,-0.0763,-0.0753,-0.0744,0,0,0,0,0,-0.056,-0.0529,-0.055,-0.0551,-0.0581,-0.058,-0.0585,-0.063,-0.0664,-0.0654,-0.0708,-0.0748,-0.081,-0.0822,-0.0831,-0.0805,-0.0866,-0.0862,-0.0859,-0.0768,-0.0755,-0.0744,0,0,0,0,0,0,-0.0504,-0.0536,-0.056,-0.0539,-0.0551,-0.0594,-0.0581,-0.0615,-0.0649,-0.0662,-0.0732,-0.0746,-0.0756,-0.0787,-0.0799,-0.0798,-0.0843,-0.0841,-0.077,-0.0759,-0.0749,-0.0727,-0.0863,0,0,0,0,0,-0.0486,-0.0478,-0.051,-0.0488,-0.0492,-0.0535,-0.0539,-0.057,-0.0605,-0.0623,-0.0667,-0.0713,-0.0746,-0.0758,-0.0792,-0.0783,-0.0811,-0.0771,-0.0761,-0.0753,-0.074,-0.0762,-0.0754,-0.0847,-0.0847,-0.0847,0,0,-0.0454,-0.047,-0.0464,-0.0475,-0.0493,-0.0492,-0.0543,-0.0538,-0.0541,-0.0626,-0.0636,-0.0681,-0.0738,-0.0742,-0.0747,-0.0765,-0.0738,-0.0749,-0.0741,-0.0733,-0.0758,-0.0749,-0.0741,-0.0845,-0.0846,-0.0846,0,0,-0.0398,-0.0403,-0.0392,-0.0399,-0.0415,-0.0438,-0.0431,-0.0467,-0.0485,-0.0494,-0.0564,-0.0586,-0.0629,-0.0664,-0.0689,-0.0639,-0.0692,-0.0649,-0.0577,-0.0598,-0.0591,-0.0584,-0.0594,-0.059,-0.0637,-0.0637,-0.0637,0,-0.0366,-0.036,-0.038,-0.0376,-0.0375,-0.0411,-0.04,-0.0412,-0.045,-0.046,-0.0483,-0.0549,-0.0591,-0.0607,-0.0592,-0.0616,-0.0637,-0.0618,-0.0585,-0.058,-0.0575,-0.0587,-0.0584,-0.0632,-0.0632,-0.0633,-0.0634,0,-0.0315,-0.0312,-0.0295,-0.0312,-0.0306,-0.0291,-0.0315,-0.0314,-0.0337,-0.0365,-0.0378,-0.043,-0.0475,-0.048,-0.0521,-0.0507,-0.0535,-0.0576,-0.0614,-0.056,-0.0576,-0.0574,-0.0624,-0.0626,-0.0628,-0.0629,0,0,-0.0257,-0.0264,-0.0261,-0.0265,-0.0274,-0.0265,-0.0251,-0.0257,-0.0261,-0.0275,-0.0281,-0.0312,-0.0346,-0.0374,-0.0422,-0.0423,-0.0402,-0.0473,-0.0476,-0.048,-0.0441,-0.0453,-0.0453,-0.0444,-0.0443,-0.0442,-0.046,0,-0.0222,-0.0203,-0.0212,-0.0187,-0.0184,-0.0201,-0.0187,-0.0194,-0.0211,-0.022,-0.0249,-0.0277,-0.0305,-0.033,-0.0329,-0.0399,-0.0395,-0.0393,-0.0495,-0.0497,-0.0513,-0.045,-0.0372,-0.0381,-0.0459,-0.0459,-0.0458,0,-0.0179,-0.0181,-0.0153,-0.0151,-0.0148,-0.0131,-0.0124,-0.0118,-0.0136,-0.0153,-0.017,-0.0214,-0.0219,-0.0257,-0.0302,-0.0302,-0.0352,-0.0392,-0.0395,-0.0439,-0.0505,-0.0451,-0.0375,-0.0446,-0.0456,-0.0456,-0.0457,0,-0.014,-0.0133,-0.0109,-0.0107,-0.0109,-0.0094,-0.0088,-0.0098,-0.0096,-0.0116,-0.0125,-0.0151,-0.0171,-0.0218,-0.0287,-0.0302,-0.0338,-0.0384,-0.0434,-0.0436,-0.0405,-0.0405,-0.0407,-0.0406,-0.0406,-0.0406,-0.0406,0,-0.0101,-0.0087,-0.009,-0.0079,-0.0051,-0.0061,-0.0032,-0.004,-0.0051,-0.0035,-0.0088,-0.0081,-0.0162,-0.0199,-0.0262,-0.0327,-0.0323,-0.04,-0.0434,-0.0366,-0.0363,-0.0455,-0.0519,-0.0407,-0.0406,-0.0406,-0.0406,0,-0.0067,-0.0065,-0.0045,-0.0039,-0.0032,-0.001,0.0007,0.0017,0.0,0.0018,0.0014,-0.0029,-0.0066,-0.0149,-0.0232,-0.03,-0.0398,-0.0399,-0.0305,-0.0328,-0.0448,-0.0509,-0.0572,-0.0592,-0.0451,-0.0452,-0.0452,0,-0.0053,-0.0035,-0.0012,0.0007,0.0012,0.0038,0.0055,0.0048,0.0062,0.0065,0.0082,0.004,0.0044,-0.0081,-0.0197,-0.0304,-0.0392,-0.0342,-0.0357,-0.042,-0.0514,-0.0565,-0.0581,-0.027,-0.0269,-0.0268,-0.0267,0,-0.0032,-0.0011,0.0004,0.0037,0.0067,0.0099,0.0127,0.0149,0.0155,0.0183,0.0224,0.0228,0.0117,0.0069,-0.0108,-0.0204,-0.0371,-0.0327,-0.041,-0.0376,-0.0412,-0.0459,-0.0297,-0.0258,-0.0259,-0.026,-0.026,-0.0261,-0.002,0.0005,0.0036,0.0067,0.0107,0.0159,0.0206,0.025,0.0308,0.0408,0.0384,0.0495,0.0354,0.014,-0.0037,-0.0283,-0.033,-0.0336,-0.0404,-0.0449,-0.0464,-0.028,-0.028,-0.0281,-0.0282,-0.0283,-0.0283,0,-0.0027,0.0016,0.0058,0.011,0.0167,0.0179,0.0252,0.0332,0.044,0.0598,0.0683,0.0772,0.0576,0.0328,-0.0041,-0.0279,-0.0373,-0.0413,-0.0445,-0.0459,-0.0292,-0.0278,-0.0255,-0.0255,-0.0255,-0.0255,-0.0255,-0.0255,-0.0024,0.0017,0.0046,0.0142,0.0194,0.0299,0.0356,0.0499,0.065,0.0921,0.1105,0.1174,0.1001,0.0265,-0.024,-0.0379,-0.0528,-0.0568,-0.0682,-0.0549,-0.0546,-0.0543,-0.0543,-0.0576,-0.0576,-0.0768,-0.077,-0.0772]}],[{"header":{"parameterUnit":"m.s-1","parameterCategory":2,"la1":30.2991,"la2":30.254,"lo1":-89.0895,"lo2":-89.0444,"dy":0.0017,"dx":0.0017,"nx":28,"ny":28,"refTime":"2023-08-04T21:00:00:Z","depth":"2","parameterNumber":2,"parameterNumberName":"U-component_of_CURRENTS"},"data":[0,0,0,0,0,0,0,0,0,0,0,0,0,0,0,0,0,0,0,0,0,0,0,0,0,0,0,0,0,0,0,0,0,0,0,0,0,0,0,0,0,0,0,0,0,0,0,0,0,0,0,0,0,0,0,0,0,0,0.0945,0.0947,0,0.1101,0.1103,0.1104,0.1141,0.114,0.114,0.1139,0.1086,0.1085,0.1084,0,0,0,0,0,0,0,0,0,0,0,0,0,0.0767,0.0769,0.0945,0.0947,0.095,0.1101,0.1103,0.1104,0.1141,0.114,0.114,0.1139,0.1086,0.1085,0.1084,0,0,0,0,0,0,0,0,0,0,0,0,0,0.0871,0.077,0.0945,0.099,0.0996,0.1101,0.1103,0.1105,0.1141,0.114,0.1139,0.1139,0.1087,0.1085,0.1084,0.1095,0,0,0.108,0.108,0,0,0,0,0,0,0,0,0.0865,0.0877,0.0981,0.0987,0.0994,0.1105,0.1021,0.1093,0.1142,0.1081,0.1139,0.1138,0.1077,0.1076,0.1104,0.1092,0.109,0.108,0.1079,0.1079,0.1078,0,0,0,0,0,0,0,0.0857,0.0871,0.1002,0.0984,0.0992,0.1033,0.1046,0.1036,0.1074,0.1086,0.109,0.1116,0.1078,0.1105,0.1102,0.1089,0.108,0.1079,0.1078,0.1078,0.1228,0.1232,0,0,0,0,0,0,0.0845,0.0864,0.0997,0.1007,0.0931,0.1037,0.1051,0.1066,0.1079,0.1084,0.1117,0.1117,0.1108,0.1104,0.11,0.1201,0.1079,0.1078,0.1077,0.1223,0.1229,0.1234,0,0,0,0,0,0,0.084,0.0855,0.0991,0.0943,0.0964,0.1041,0.1058,0.107,0.1136,0.1106,0.1104,0.1175,0.1107,0.1102,0.1133,0.1195,0.1077,0.1076,0.1217,0.1225,0.1231,0.1344,0,0,0,0,0,0,0.0834,0.0852,0.0887,0.0942,0.0967,0.1044,0.106,0.1074,0.1153,0.1156,0.1154,0.1147,0.1106,0.1136,0.1132,0.1191,0.1075,0.1211,0.1221,0.1229,0.1335,0.1355,0.1372,0,0,0,0,0,0.0827,0.0842,0.0887,0.0905,0.1002,0.1045,0.106,0.1109,0.1157,0.117,0.1203,0.1149,0.1191,0.1138,0.1132,0.1192,0.1207,0.1218,0.1228,0.1326,0.1351,0.1371,0,0,0,0,0,0,0.0807,0.0851,0.0899,0.0939,0.0996,0.1052,0.1089,0.1143,0.1189,0.1208,0.1189,0.1183,0.124,0.1215,0.1158,0.1273,0.1199,0.1209,0.1276,0.1298,0.1316,0.1212,0.1074,0,0,0,0,0,0.082,0.0816,0.0898,0.0929,0.0969,0.1052,0.1095,0.1132,0.1175,0.1199,0.1217,0.1248,0.128,0.1285,0.1294,0.1341,0.1308,0.139,0.1408,0.1423,0.1343,0.1397,0.141,0.1269,0.1269,0.1269,0,0,0.0817,0.0846,0.0848,0.0922,0.098,0.1012,0.1073,0.1136,0.1166,0.1181,0.1243,0.1304,0.1311,0.137,0.1395,0.1352,0.1467,0.1437,0.1449,0.1358,0.1409,0.1422,0.1433,0.1276,0.1275,0.1274,0,0,0.0792,0.085,0.0851,0.0885,0.0975,0.1014,0.1045,0.1144,0.1196,0.127,0.1314,0.1399,0.1446,0.1464,0.1478,0.1603,0.1566,0.1661,0.1654,0.1712,0.1721,0.1729,0.177,0.178,0.1666,0.1666,0.1667,0,0.0831,0.0827,0.0863,0.0881,0.092,0.1016,0.1051,0.1099,0.1198,0.1255,0.1288,0.1445,0.1468,0.1532,0.1594,0.1631,0.1662,0.1565,0.1728,0.1735,0.174,0.178,0.1789,0.1673,0.1672,0.1672,0.1671,0,0.0791,0.0817,0.0823,0.0861,0.0895,0.094,0.1011,0.1084,0.119,0.1254,0.1386,0.1458,0.1538,0.1616,0.1631,0.1724,0.1737,0.1748,0.1652,0.176,0.1798,0.1806,0.1683,0.168,0.1678,0.1677,0,0,0.0864,0.0815,0.0832,0.0866,0.0904,0.0952,0.0981,0.1076,0.1159,0.1259,0.1364,0.1468,0.1554,0.1574,0.1661,0.1715,0.1837,0.1756,0.1757,0.1759,0.1974,0.1966,0.1973,0.1904,0.1904,0.1905,0.2007,0,0.088,0.0871,0.0841,0.0884,0.0919,0.097,0.1006,0.1085,0.118,0.1294,0.1385,0.1506,0.1524,0.1635,0.168,0.1805,0.1852,0.1805,0.1896,0.1896,0.1845,0.1979,0.1758,0.1828,0.2013,0.2014,0.2015,0,0.0902,0.0892,0.0899,0.0947,0.0981,0.1016,0.1141,0.1181,0.1284,0.1368,0.1444,0.152,0.1609,0.1641,0.1771,0.1759,0.1844,0.1917,0.1925,0.1846,0.1899,0.1742,0.1833,0.2027,0.2026,0.2025,0.2024,0,0.0964,0.0975,0.0983,0.0987,0.1021,0.109,0.1154,0.124,0.1308,0.1421,0.1495,0.1572,0.1676,0.174,0.1868,0.1848,0.2022,0.2017,0.2062,0.2064,0.184,0.182,0.2077,0.2077,0.2077,0.2077,0.2076,0,0.1009,0.1051,0.1035,0.1049,0.1158,0.1168,0.1296,0.1368,0.1448,0.1525,0.1554,0.1641,0.1715,0.1817,0.1886,0.2001,0.2033,0.204,0.2086,0.1888,0.1871,0.1988,0.1976,0.208,0.208,0.2079,0.2078,0,0.1082,0.1048,0.1094,0.1137,0.118,0.1277,0.1386,0.1451,0.1527,0.1618,0.1653,0.1733,0.1869,0.1935,0.2089,0.2057,0.2158,0.2195,0.195,0.1963,0.2143,0.2137,0.2208,0.2209,0.2209,0.2209,0.221,0,0.1114,0.1113,0.116,0.1198,0.1239,0.1355,0.1414,0.1506,0.1533,0.1679,0.1709,0.187,0.1946,0.2127,0.2112,0.218,0.2272,0.2033,0.1919,0.2117,0.2155,0.2149,0.2142,0.1699,0.1695,0.1692,0.169,0,0.1154,0.1157,0.1156,0.1218,0.1302,0.1371,0.146,0.1498,0.1573,0.1651,0.176,0.1848,0.1986,0.1941,0.2025,0.204,0.1985,0.1972,0.2263,0.1708,0.1648,0.1682,0.169,0.1661,0.1664,0.1666,0.1668,0.1669,0.1181,0.1176,0.1132,0.1228,0.1293,0.1335,0.14,0.1454,0.1519,0.1595,0.1697,0.1765,0.1766,0.177,0.1782,0.1778,0.188,0.1781,0.1786,0.1796,0.1726,0.167,0.1674,0.1677,0.168,0.1682,0.1684,0,0.1165,0.1123,0.1145,0.1198,0.1272,0.1346,0.1366,0.1389,0.1467,0.1512,0.1591,0.1432,0.1426,0.1518,0.1408,0.14,0.1344,0.1417,0.1295,0.1322,0.1347,0.125,0.1075,0.1074,0.1073,0.1073,0,0,0.112,0.1069,0.1055,0.1141,0.1242,0.1284,0.1321,0.1343,0.1329,0.1301,0.1292,0.1349,0.1401,0.1186,0.1162,0.1111,0.1224,0.1095,0.1567,0.1445,0.1469,0.1527,0.1407,0,0,0,0,0]},{"header":{"parameterUnit":"m.s-1","parameterCategory":2,"la1":30.2991,"la2":30.254,"lo1":-89.0895,"lo2":-89.0444,"dy":0.0017,"dx":0.0017,"nx":28,"ny":28,"refTime":"2023-08-04T21:00:00:Z","depth":"2","parameterNumber":3,"parameterNumberName":"V-component_of_CURRENTS"},"data":[0,0,0,0,0,0,0,0,0,0,0,0,0,0,0,0,0,0,0,0,0,0,0,0,0,0,0,0,0,0,0,0,0,0,0,0,0,0,0,0,0,0,0,0,0,0,0,0,0,0,0,0,0,0,0,0,0,0,-0.0057,-0.0058,0,-0.0166,-0.0166,-0.0167,-0.0235,-0.0236,-0.0237,-0.0237,-0.0308,-0.0309,-0.031,0,0,0,0,0,0,0,0,0,0,0,0,0,0.0024,0.0024,-0.0057,-0.0058,-0.006,-0.0165,-0.0166,-0.0167,-0.0235,-0.0236,-0.0237,-0.0238,-0.0307,-0.0309,-0.031,0,0,0,0,0,0,0,0,0,0,0,0,0,-0.0035,0.0024,-0.0056,-0.011,-0.0116,-0.0165,-0.0166,-0.0168,-0.0235,-0.0236,-0.0237,-0.0238,-0.0307,-0.0308,-0.031,-0.0296,0,0,-0.0315,-0.0316,0,0,0,0,0,0,0,0,-0.0032,-0.0038,-0.01,-0.0107,-0.0114,-0.0192,-0.0164,-0.021,-0.0234,-0.0185,-0.0237,-0.0239,-0.0268,-0.0273,-0.0284,-0.0299,-0.0302,-0.0315,-0.0316,-0.0317,-0.0317,0,0,0,0,0,0,0,-0.0027,-0.0034,-0.0095,-0.0102,-0.011,-0.0153,-0.0161,-0.0173,-0.0213,-0.0189,-0.0195,-0.0215,-0.027,-0.0282,-0.0286,-0.0303,-0.0315,-0.0317,-0.0318,-0.0318,-0.0408,-0.0409,0,0,0,0,0,0,-0.0019,-0.0029,-0.0092,-0.0099,-0.008,-0.0153,-0.0163,-0.0162,-0.0215,-0.0225,-0.0214,-0.0218,-0.0279,-0.0284,-0.0289,-0.0322,-0.0317,-0.0319,-0.032,-0.0406,-0.0408,-0.0409,0,0,0,0,0,0,-0.0016,-0.0022,-0.0087,-0.0072,-0.0084,-0.0153,-0.0152,-0.0163,-0.0203,-0.0235,-0.0244,-0.0246,-0.028,-0.0287,-0.0321,-0.0324,-0.0319,-0.0321,-0.0405,-0.0407,-0.0409,-0.0359,0,0,0,0,0,0,-0.0013,-0.002,-0.0037,-0.007,-0.0084,-0.0106,-0.0152,-0.0165,-0.0214,-0.0221,-0.0264,-0.0271,-0.0281,-0.0318,-0.0322,-0.0326,-0.0322,-0.0403,-0.0406,-0.0408,-0.0359,-0.0359,-0.036,0,0,0,0,0,-0.0009,-0.0011,-0.0036,-0.0046,-0.0097,-0.0106,-0.0115,-0.0167,-0.0215,-0.0212,-0.0263,-0.0271,-0.0338,-0.032,-0.0325,-0.0329,-0.0402,-0.0405,-0.0408,-0.0359,-0.0359,-0.036,0,0,0,0,0,0,0.0009,-0.002,-0.0047,-0.0062,-0.0083,-0.0119,-0.014,-0.0179,-0.0219,-0.024,-0.0277,-0.0285,-0.0322,-0.0339,-0.0318,-0.0369,-0.0376,-0.038,-0.0337,-0.0338,-0.0338,-0.028,-0.0324,0,0,0,0,0,0.0006,0.001,-0.003,-0.0036,-0.0054,-0.0105,-0.0129,-0.0156,-0.0192,-0.0214,-0.0252,-0.0299,-0.0334,-0.0346,-0.0376,-0.039,-0.0388,-0.0404,-0.0404,-0.0404,-0.0365,-0.0394,-0.0391,-0.042,-0.042,-0.042,0,0,0.0015,-0.0004,-0.0003,-0.0031,-0.006,-0.0054,-0.012,-0.0145,-0.0142,-0.0212,-0.0238,-0.03,-0.0343,-0.0365,-0.0383,-0.0379,-0.0396,-0.0408,-0.0407,-0.0367,-0.0397,-0.0393,-0.039,-0.0422,-0.0421,-0.0421,0,0,0.0059,0.0014,0.0035,0.002,-0.0021,-0.0039,-0.0049,-0.0099,-0.013,-0.0163,-0.0224,-0.0285,-0.0334,-0.0359,-0.038,-0.0399,-0.0403,-0.0429,-0.0367,-0.0398,-0.0394,-0.0391,-0.0375,-0.0371,-0.042,-0.042,-0.042,0,0.0048,0.0077,0.0039,0.0051,0.0044,-0.0027,-0.0002,-0.0034,-0.0089,-0.01,-0.0163,-0.0264,-0.0322,-0.0332,-0.0355,-0.0393,-0.0397,-0.0357,-0.0392,-0.0389,-0.0387,-0.0372,-0.0368,-0.0418,-0.0418,-0.0419,-0.0419,0,0.013,0.0123,0.0131,0.0136,0.0138,0.0137,0.0103,0.0084,0.0016,-0.002,-0.0079,-0.0177,-0.023,-0.0279,-0.0324,-0.034,-0.0343,-0.0393,-0.0378,-0.038,-0.0366,-0.0362,-0.0415,-0.0416,-0.0417,-0.0417,0,0,0.0145,0.0178,0.0172,0.0188,0.0172,0.0189,0.0203,0.02,0.0206,0.0107,0.0107,-0.0015,-0.0098,-0.0128,-0.0214,-0.0249,-0.0266,-0.031,-0.0313,-0.0266,-0.0294,-0.0263,-0.0256,-0.0326,-0.0326,-0.0325,-0.0286,0,0.0193,0.0251,0.0266,0.0318,0.033,0.0307,0.0339,0.0332,0.0285,0.0267,0.0148,0.0092,-0.0031,-0.0086,-0.0138,-0.0235,-0.0256,-0.0268,-0.0321,-0.0321,-0.0271,-0.0251,-0.027,-0.0234,-0.0283,-0.0282,-0.0282,0,0.0254,0.0276,0.0342,0.0398,0.0406,0.0439,0.0481,0.0497,0.0471,0.0423,0.0353,0.0258,0.0178,0.0053,-0.0066,-0.007,-0.0168,-0.0242,-0.0244,-0.0218,-0.0283,-0.0246,-0.0226,-0.0276,-0.0276,-0.0277,-0.0277,0,0.0294,0.0332,0.0391,0.0401,0.0452,0.0487,0.0518,0.0531,0.0546,0.0507,0.049,0.0397,0.0313,0.0197,0.0016,-0.0029,-0.009,-0.0177,-0.0219,-0.0217,-0.0239,-0.0239,-0.0238,-0.0238,-0.0238,-0.0238,-0.0238,0,0.0341,0.0376,0.0399,0.043,0.0479,0.052,0.0595,0.0593,0.0617,0.0646,0.0545,0.0549,0.0333,0.0259,0.0105,-0.0021,-0.0027,-0.0171,-0.0201,-0.0224,-0.0223,-0.0273,-0.0278,-0.0236,-0.0237,-0.0237,-0.0237,0,0.0378,0.0397,0.0441,0.0489,0.0498,0.0527,0.0618,0.0688,0.0677,0.0712,0.0692,0.0646,0.0558,0.0386,0.0217,0.0088,-0.0032,-0.0079,-0.0062,-0.009,-0.0153,-0.0156,-0.0103,-0.0101,-0.01,-0.0099,-0.0098,0,0.0404,0.0439,0.0468,0.0489,0.0502,0.0559,0.0632,0.0677,0.0757,0.0787,0.0822,0.0755,0.0763,0.0578,0.0318,0.012,0.0042,-0.0019,-0.0119,-0.0102,-0.0137,-0.0143,-0.0147,-0.0132,-0.0131,-0.0131,-0.013,0,0.0464,0.0473,0.0516,0.0535,0.0586,0.0674,0.0772,0.083,0.0903,0.0964,0.1067,0.1088,0.0879,0.0681,0.0385,0.0243,0.0013,-0.0013,-0.0004,-0.0158,-0.0126,-0.0162,-0.0166,-0.0126,-0.0127,-0.0127,-0.0127,-0.0127,0.0485,0.0525,0.0591,0.0594,0.0654,0.0778,0.0891,0.1017,0.1158,0.1234,0.125,0.1235,0.095,0.0568,0.0347,0.0076,0.0071,-0.0058,-0.0062,-0.0065,-0.0071,-0.0038,-0.002,-0.002,-0.002,-0.0019,-0.0019,0,0.0523,0.0602,0.0661,0.07,0.0771,0.0793,0.0993,0.1131,0.1307,0.1325,0.1402,0.1122,0.09,0.0584,0.0173,-0.0023,-0.0065,-0.0076,-0.0131,-0.0132,-0.0134,-0.0147,-0.0115,-0.0115,-0.0116,-0.0116,0,0,0.0562,0.0665,0.0708,0.0797,0.0813,0.098,0.1096,0.1279,0.1362,0.1432,0.1354,0.1257,0.089,0.0555,0.0276,0.0068,0.0027,0.005,0.0145,0.0112,0.0113,-0.0107,-0.0124,0,0,0,0,0]}],[{"header":{"parameterUnit":"m.s-1","parameterCategory":2,"la1":30.2991,"la2":30.254,"lo1":-89.0895,"lo2":-89.0444,"dy":0.0017,"dx":0.0017,"nx":28,"ny":28,"refTime":"2023-08-04T21:00:00:Z","depth":"4","parameterNumber":2,"parameterNumberName":"U-component_of_CURRENTS"},"data":[0,0,0,0,0,0,0,0,0,0,0,0,0,0,0,0,0,0,0,0,0,0,0,0,0,0,0,0,0,0,0,0,0,0,0,0,0,0,0,0,0,0,0,0,0,0,0,0,0,0,0,0,0,0,0,0,0,0,-0.0341,-0.0342,0,-0.0414,-0.0415,-0.0416,-0.0445,-0.0445,-0.0445,-0.0445,-0.055,-0.0553,-0.0556,0,0,0,0,0,0,0,0,0,0,0,0,0,-0.026,-0.0261,-0.0341,-0.0342,-0.0343,-0.0414,-0.0415,-0.0416,-0.0445,-0.0445,-0.0445,-0.0445,-0.0549,-0.0553,-0.0556,0,0,0,0,0,0,0,0,0,0,0,0,0,-0.0308,-0.0261,-0.0341,-0.0368,-0.0372,-0.0414,-0.0415,-0.0416,-0.0445,-0.0445,-0.0445,-0.0445,-0.0548,-0.0552,-0.0556,-0.058,0,0,-0.0569,-0.0571,0,0,0,0,0,0,0,0,-0.0305,-0.031,-0.0363,-0.0367,-0.0371,-0.0423,-0.0425,-0.0473,-0.0445,-0.0414,-0.0445,-0.0445,-0.0513,-0.052,-0.0529,-0.0585,-0.0589,-0.0569,-0.0572,-0.0574,-0.0575,0,0,0,0,0,0,0,-0.0301,-0.0307,-0.0367,-0.0364,-0.0369,-0.0389,-0.0395,-0.0434,-0.046,-0.0417,-0.042,-0.0432,-0.0514,-0.0525,-0.0532,-0.0591,-0.0569,-0.0573,-0.0576,-0.0577,-0.0773,-0.0775,0,0,0,0,0,0,-0.0296,-0.0304,-0.0365,-0.037,-0.034,-0.039,-0.0397,-0.0404,-0.0459,-0.0468,-0.0432,-0.0433,-0.0518,-0.0527,-0.0535,-0.0636,-0.0574,-0.0578,-0.058,-0.077,-0.0773,-0.0776,0,0,0,0,0,0,-0.0294,-0.0301,-0.0362,-0.0341,-0.0351,-0.0392,-0.0399,-0.0405,-0.0457,-0.0471,-0.048,-0.0482,-0.0518,-0.053,-0.0599,-0.0638,-0.0579,-0.0583,-0.0767,-0.0771,-0.0775,-0.0793,0,0,0,0,0,0,-0.0291,-0.0299,-0.0316,-0.0341,-0.0352,-0.0413,-0.0399,-0.0407,-0.0463,-0.0466,-0.0516,-0.0523,-0.0519,-0.0593,-0.0603,-0.0642,-0.0586,-0.0763,-0.0769,-0.0773,-0.0789,-0.0797,-0.0804,0,0,0,0,0,-0.0288,-0.0314,-0.0316,-0.0325,-0.0368,-0.0415,-0.0424,-0.045,-0.0466,-0.0496,-0.0527,-0.0524,-0.0633,-0.0598,-0.0609,-0.0651,-0.0761,-0.0767,-0.0773,-0.0785,-0.0795,-0.0804,0,0,0,0,0,0,-0.0297,-0.032,-0.0323,-0.0357,-0.0393,-0.0422,-0.0462,-0.048,-0.0529,-0.0548,-0.0554,-0.0564,-0.0639,-0.0654,-0.0616,-0.0727,-0.07,-0.0708,-0.0705,-0.0715,-0.0722,-0.0678,-0.059,0,0,0,0,0,-0.0303,-0.033,-0.0353,-0.039,-0.041,-0.0444,-0.0474,-0.0497,-0.0537,-0.056,-0.0589,-0.0631,-0.0668,-0.0699,-0.0734,-0.0797,-0.0771,-0.0837,-0.0845,-0.0851,-0.0826,-0.0829,-0.0833,-0.0796,-0.0796,-0.0796,0,0,-0.0317,-0.0339,-0.0354,-0.0395,-0.0428,-0.0465,-0.0464,-0.053,-0.0567,-0.0566,-0.0639,-0.0663,-0.0693,-0.0752,-0.0789,-0.0773,-0.0851,-0.0859,-0.0863,-0.0834,-0.0836,-0.0838,-0.0841,-0.0801,-0.08,-0.0799,0,0,-0.0359,-0.0383,-0.0413,-0.0446,-0.0504,-0.0521,-0.055,-0.0599,-0.063,-0.0694,-0.0701,-0.0747,-0.0815,-0.0827,-0.0844,-0.0925,-0.0891,-0.0956,-0.0956,-0.0961,-0.0962,-0.0962,-0.093,-0.0927,-0.0959,-0.096,-0.096,0,-0.0381,-0.041,-0.0435,-0.0476,-0.0509,-0.055,-0.0593,-0.0631,-0.0698,-0.0716,-0.0728,-0.0807,-0.0842,-0.0885,-0.0904,-0.0939,-0.0915,-0.0911,-0.0964,-0.0965,-0.0965,-0.0931,-0.0928,-0.0961,-0.0961,-0.0961,-0.0961,0,-0.0428,-0.0464,-0.0498,-0.0547,-0.0588,-0.0644,-0.0685,-0.0734,-0.0773,-0.079,-0.0852,-0.0884,-0.0905,-0.0951,-0.0946,-0.0978,-0.0951,-0.0968,-0.0924,-0.0968,-0.0932,-0.0928,-0.0963,-0.0963,-0.0962,-0.0962,0,0,-0.0455,-0.0511,-0.0531,-0.0549,-0.0631,-0.0663,-0.0734,-0.078,-0.0802,-0.0868,-0.0883,-0.0954,-0.0938,-0.0955,-0.0969,-0.0984,-0.0975,-0.0969,-0.0968,-0.0905,-0.0945,-0.0788,-0.0768,-0.0991,-0.0991,-0.0991,-0.0915,0,-0.0491,-0.0539,-0.0578,-0.0647,-0.0668,-0.0727,-0.0773,-0.0826,-0.0857,-0.088,-0.0919,-0.093,-0.095,-0.094,-0.0964,-0.0972,-0.0966,-0.0991,-0.0938,-0.0935,-0.0764,-0.076,-0.099,-0.0912,-0.0911,-0.0911,-0.091,0,-0.0529,-0.0547,-0.0599,-0.0652,-0.0673,-0.0724,-0.078,-0.0818,-0.0858,-0.0871,-0.0884,-0.089,-0.0906,-0.0918,-0.0929,-0.0937,-0.0925,-0.0939,-0.0936,-0.077,-0.077,-0.0865,-0.0903,-0.0904,-0.0904,-0.0905,-0.0905,0,-0.0499,-0.0573,-0.0603,-0.0629,-0.0693,-0.0734,-0.0764,-0.0813,-0.0825,-0.0827,-0.082,-0.0846,-0.0832,-0.0851,-0.0854,-0.0881,-0.0856,-0.0904,-0.0751,-0.0739,-0.0895,-0.0895,-0.0891,-0.0891,-0.0891,-0.0891,-0.0892,0,-0.0507,-0.0544,-0.0589,-0.0604,-0.064,-0.0695,-0.0723,-0.0748,-0.0769,-0.0729,-0.0779,-0.0735,-0.0812,-0.0806,-0.0826,-0.0745,-0.0822,-0.0716,-0.0701,-0.0908,-0.0911,-0.0891,-0.0892,-0.0889,-0.0889,-0.089,-0.089,0,-0.0481,-0.0518,-0.0549,-0.0605,-0.0624,-0.0641,-0.0683,-0.0681,-0.0699,-0.0645,-0.0627,-0.0649,-0.059,-0.0658,-0.0667,-0.0667,-0.0641,-0.0595,-0.0767,-0.077,-0.0531,-0.0535,-0.0411,-0.0405,-0.04,-0.0395,-0.0391,0,-0.0465,-0.0473,-0.0524,-0.0528,-0.0562,-0.0585,-0.0591,-0.0629,-0.0584,-0.055,-0.0492,-0.0459,-0.0446,-0.0358,-0.0434,-0.0434,-0.0442,-0.0436,-0.0518,-0.0479,-0.0479,-0.0492,-0.0502,-0.0383,-0.0381,-0.038,-0.0379,0,-0.0419,-0.0453,-0.0466,-0.0463,-0.0484,-0.0467,-0.0449,-0.0435,-0.0414,-0.0444,-0.0301,-0.0273,-0.0203,-0.0219,-0.0214,-0.0231,-0.0455,-0.0381,-0.0394,-0.047,-0.0444,-0.0451,-0.0468,-0.036,-0.0362,-0.0364,-0.0365,0,-0.0391,-0.0369,-0.0381,-0.0395,-0.0399,-0.0341,-0.0358,-0.0278,-0.0256,-0.0215,-0.0142,-0.0128,-0.0131,-0.0104,-0.0098,-0.0093,-0.0108,-0.0145,-0.0172,-0.0193,-0.0162,-0.0099,0.0138,0,0,0,0,0,-0.0322,-0.0287,-0.0294,-0.0298,-0.0311,-0.0297,-0.025,-0.0257,-0.0251,-0.0108,-0.0119,-0.0025,0.0024,0.0008,0.0055,-0.0034,-0.0147,0.0018,-0.0213,-0.0256,-0.0277,-0.0265,0,0,0,0,0,0,-0.0265,-0.0253,-0.0262,-0.0233,-0.0223,-0.0194,-0.0166,-0.0156,-0.0064,-0.0058,-0.0032,-0.0003,0.0022,0.0005,0.0058,0.0055,-0.0079,0.0026,0.0028,-0.0243,-0.0263,-0.0281,-0.0275,0,0,0,0,0]},{"header":{"parameterUnit":"m.s-1","parameterCategory":2,"la1":30.2991,"la2":30.254,"lo1":-89.0895,"lo2":-89.0444,"dy":0.0017,"dx":0.0017,"nx":28,"ny":28,"refTime":"2023-08-04T21:00:00:Z","depth":"4","parameterNumber":3,"parameterNumberName":"V-component_of_CURRENTS"},"data":[0,0,0,0,0,0,0,0,0,0,0,0,0,0,0,0,0,0,0,0,0,0,0,0,0,0,0,0,0,0,0,0,0,0,0,0,0,0,0,0,0,0,0,0,0,0,0,0,0,0,0,0,0,0,0,0,0,0,0.0169,0.0169,0,0.0164,0.0164,0.0164,0.0224,0.0226,0.0228,0.023,0.0275,0.0275,0.0274,0,0,0,0,0,0,0,0,0,0,0,0,0,0.0193,0.0193,0.0169,0.0169,0.0169,0.0164,0.0164,0.0164,0.0224,0.0226,0.0228,0.0231,0.0275,0.0275,0.0274,0,0,0,0,0,0,0,0,0,0,0,0,0,0.0183,0.0192,0.0169,0.02,0.0203,0.0164,0.0164,0.0164,0.0224,0.0226,0.0229,0.0232,0.0276,0.0275,0.0274,0.0215,0,0,0.0272,0.0272,0,0,0,0,0,0,0,0,0.0184,0.0182,0.0195,0.0198,0.0201,0.0199,0.0189,0.0184,0.0223,0.0214,0.023,0.0233,0.0254,0.0255,0.0245,0.0217,0.0219,0.0272,0.0271,0.0271,0.0271,0,0,0,0,0,0,0,0.0184,0.0182,0.0165,0.0195,0.0199,0.0202,0.0203,0.0188,0.0218,0.0215,0.022,0.0221,0.0256,0.0245,0.0246,0.022,0.0272,0.0271,0.0271,0.0271,0.0249,0.0249,0,0,0,0,0,0,0.0187,0.0183,0.0165,0.0165,0.0201,0.0199,0.0201,0.0196,0.0217,0.0223,0.0219,0.0224,0.0245,0.0247,0.0248,0.0276,0.0271,0.027,0.027,0.0249,0.0249,0.0249,0,0,0,0,0,0,0.0188,0.0185,0.0166,0.0176,0.0174,0.0197,0.0189,0.0194,0.0229,0.022,0.0227,0.0255,0.0247,0.0249,0.025,0.0275,0.027,0.0269,0.025,0.0249,0.0249,0.0269,0,0,0,0,0,0,0.0188,0.0185,0.0196,0.0176,0.0174,0.0151,0.0187,0.0192,0.0224,0.0232,0.0252,0.0256,0.0249,0.0251,0.025,0.0274,0.0269,0.025,0.0249,0.0249,0.0268,0.0269,0.027,0,0,0,0,0,0.0189,0.0183,0.0197,0.0196,0.0183,0.015,0.0149,0.0173,0.0223,0.022,0.0238,0.0258,0.025,0.0249,0.0248,0.0272,0.025,0.025,0.0249,0.0268,0.0269,0.027,0,0,0,0,0,0,0.0195,0.0188,0.0203,0.0196,0.0182,0.0162,0.017,0.0192,0.0204,0.0236,0.0241,0.0243,0.0256,0.0252,0.0252,0.0265,0.0259,0.0258,0.0274,0.0275,0.0276,0.026,0.0268,0,0,0,0,0,0.0201,0.02,0.0185,0.018,0.0179,0.0185,0.0187,0.0204,0.0205,0.0217,0.0232,0.0247,0.0242,0.0252,0.0242,0.024,0.0227,0.0259,0.026,0.0261,0.0245,0.0238,0.0237,0.0248,0.0248,0.0248,0,0,0.0196,0.0199,0.0196,0.0183,0.0183,0.0152,0.0193,0.0202,0.0189,0.0217,0.0226,0.0248,0.024,0.0238,0.0246,0.0247,0.0251,0.026,0.0261,0.0245,0.0237,0.0236,0.0235,0.0248,0.0248,0.0248,0,0,0.0166,0.0195,0.0176,0.0163,0.0169,0.0164,0.0176,0.0179,0.0202,0.0203,0.0224,0.025,0.0255,0.0243,0.0239,0.0234,0.0252,0.0263,0.026,0.0254,0.0253,0.0252,0.0238,0.0236,0.0269,0.0269,0.0269,0,0.0167,0.0138,0.0163,0.0135,0.0125,0.017,0.0136,0.0143,0.0151,0.0163,0.0214,0.0232,0.0244,0.022,0.0237,0.0236,0.0242,0.026,0.0256,0.0254,0.0253,0.0239,0.0236,0.027,0.027,0.027,0.0269,0,0.0106,0.0091,0.0081,0.0059,0.005,0.0036,0.0042,0.0063,0.0123,0.0134,0.0166,0.0188,0.0206,0.0226,0.0237,0.0238,0.0248,0.0255,0.0254,0.0253,0.0238,0.0235,0.0271,0.0271,0.027,0.027,0,0,0.0079,0.0044,0.0042,0.0019,0.0019,-0.0002,-0.0006,-0.0015,-0.0001,0.0054,0.0062,0.0097,0.0165,0.0164,0.0199,0.0207,0.022,0.0247,0.0246,0.0235,0.0216,0.0159,0.015,0.0247,0.0247,0.0246,0.0212,0,0.0025,-0.0041,-0.0041,-0.0102,-0.0138,-0.0102,-0.0117,-0.0101,-0.0056,-0.0036,0.0026,0.006,0.0123,0.0175,0.0188,0.0208,0.0212,0.0228,0.0216,0.0215,0.0166,0.0143,0.0244,0.021,0.0209,0.0208,0.0208,0,-0.0038,-0.0073,-0.0135,-0.0176,-0.0183,-0.0187,-0.0174,-0.0178,-0.014,-0.0094,-0.0037,0.0012,0.0049,0.0115,0.0139,0.0161,0.0193,0.0206,0.0206,0.0137,0.015,0.0209,0.0201,0.0202,0.0202,0.0203,0.0203,0,-0.0074,-0.0141,-0.0181,-0.0198,-0.0232,-0.0212,-0.0191,-0.0162,-0.0164,-0.0094,-0.0078,-0.0031,0.0017,0.0055,0.0112,0.0143,0.012,0.0155,0.0117,0.0113,0.0169,0.0171,0.0155,0.0155,0.0155,0.0155,0.0155,0,-0.0133,-0.0178,-0.0179,-0.0205,-0.0219,-0.0209,-0.0198,-0.0167,-0.0142,-0.0154,-0.007,-0.0082,0.0015,0.0016,0.0072,0.0071,0.009,0.0095,0.0093,0.0179,0.0182,0.0167,0.0169,0.0154,0.0154,0.0154,0.0155,0,-0.0177,-0.0187,-0.0246,-0.0253,-0.0233,-0.022,-0.0188,-0.0203,-0.0144,-0.0157,-0.0129,-0.0113,-0.0096,-0.0052,-0.0014,0.0009,0.0019,0.0015,0.0081,0.0087,0.003,0.0033,-0.0035,-0.0037,-0.0039,-0.0041,-0.0042,0,-0.0209,-0.0237,-0.0257,-0.0252,-0.0233,-0.0206,-0.02,-0.0173,-0.0184,-0.0196,-0.0215,-0.0208,-0.0191,-0.0168,-0.0136,-0.0083,-0.0062,-0.0055,0.0009,0.0001,0.0007,0.0013,0.0019,-0.0046,-0.0046,-0.0047,-0.0047,0,-0.0278,-0.0269,-0.0315,-0.0274,-0.0255,-0.0281,-0.0244,-0.0249,-0.0239,-0.0252,-0.0241,-0.0226,-0.0244,-0.0198,-0.0163,-0.0126,-0.0059,-0.0076,-0.007,-0.001,-0.0013,-0.0004,0.0005,-0.0055,-0.0054,-0.0053,-0.0053,0,-0.0319,-0.0339,-0.0342,-0.0287,-0.0288,-0.0274,-0.0289,-0.0273,-0.0274,-0.0254,-0.0282,-0.0261,-0.0255,-0.023,-0.0218,-0.0176,-0.015,-0.0101,-0.0093,-0.0085,-0.0089,-0.0099,-0.0189,0,0,0,0,0,-0.0339,-0.0325,-0.0329,-0.0282,-0.0286,-0.0215,-0.0287,-0.031,-0.0313,-0.0292,-0.0255,-0.0255,-0.023,-0.0245,-0.0205,-0.0286,-0.0176,-0.0246,-0.012,-0.0095,-0.0087,-0.0088,0,0,0,0,0,0,-0.0355,-0.0375,-0.0336,-0.0254,-0.0154,-0.0157,-0.0155,-0.0195,-0.0165,-0.0171,-0.015,-0.018,-0.0157,-0.0166,-0.0148,-0.016,-0.0073,-0.0247,-0.0247,-0.01,-0.0092,-0.0085,-0.0084,0,0,0,0,0]}]]